This is the latest recevied weather packets stored in our database for station/object KI6AOK. If no packets are shown the sender has not sent any weather packets the latest 10 day(s).
| Time | Temp. | Humidity | Pressure | Rain* | Wind** | Luminosity | Snow |
|---|---|---|---|---|---|---|---|
| 1777657425 | 20° C | 63% | 1014.7 hPa | 0 mm | - | 608 W/m² | - |
| 1777657123 | 18.89° C | 65% | 1015 hPa | 0 mm | - | 905 W/m² | - |
| 1777656820 | 18.33° C | 67% | 1014.9 hPa | 0 mm | - | 489 W/m² | - |
| 1777656515 | 18.89° C | 65% | 1014.9 hPa | 0 mm | - | 370 W/m² | - |
| 1777656210 | 18.89° C | 65% | 1015.1 hPa | 0 mm | - | 402 W/m² | - |
| 1777655906 | 18.89° C | 66% | 1014.8 hPa | 0 mm | - | 395 W/m² | - |
| 1777655604 | 18.33° C | 67% | 1015 hPa | 0 mm | - | 358 W/m² | - |
| 1777655300 | 17.78° C | 69% | 1015.1 hPa | 0 mm | - | 329 W/m² | - |
| 1777654997 | 17.22° C | 71% | 1015.1 hPa | 0 mm | - | 309 W/m² | - |
| 1777654694 | 16.67° C | 72% | 1015 hPa | 0 mm | - | 295 W/m² | - |
| 1777654392 | 16.67° C | 73% | 1015.1 hPa | 0 mm | - | 291 W/m² | - |
| 1777654090 | 16.67° C | 72% | 1015 hPa | 0 mm | - | 282 W/m² | - |
| 1777653787 | 16.67° C | 72% | 1014.9 hPa | 0 mm | - | 266 W/m² | - |
| 1777653482 | 16.67° C | 73% | 1015.1 hPa | 0 mm | - | 243 W/m² | - |
| 1777653180 | 16.67° C | 74% | 1015 hPa | 0 mm | - | 222 W/m² | - |
| 1777652876 | 16.67° C | 73% | 1014.9 hPa | 0 mm | - | 202 W/m² | - |
| 1777652573 | 16.67° C | 74% | 1015 hPa | 0 mm | - | 197 W/m² | - |
| 1777652270 | 16.11° C | 75% | 1014.9 hPa | 0 mm | - | 187 W/m² | - |
| 1777651967 | 16.11° C | 75% | 1015 hPa | 0 mm | - | 172 W/m² | - |
| 1777651663 | 16.11° C | 75% | 1015.2 hPa | 0 mm | - | 159 W/m² | - |
| 1777651361 | 15.56° C | 76% | 1015 hPa | 0 mm | - | 148 W/m² | - |
| 1777651058 | 15.56° C | 75% | 1015 hPa | 0 mm | - | 139 W/m² | - |
| 1777650755 | 15.56° C | 76% | 1015 hPa | 0 mm | - | 137 W/m² | - |
| 1777650451 | 15.56° C | 76% | 1015.1 hPa | 0 mm | - | 125 W/m² | - |
| 1777650149 | 15.56° C | 77% | 1015 hPa | 0 mm | - | 116 W/m² | - |
* Rain latest hour (hover to see other rain measurements)
** Current wind speed in m/s (hover to see current wind gust speed)